Dewpoint
27 26 26 26 27 25 26 25 24 25 27 27 27 28 28 29 28 29 29 30 30 30 31 33 33 35 33
25 26 26 27 25 24 25 23 25 25 25 26 26 26 26 27 27 28 28 28 28 28 32 32 33 34 31
25 26 27 26 25 25 24 24 26 24 23 24 24 25 25 25 26 26 26 28 29 29 28 29 31 32 31
26 26 26 26 24 23 23 26 24 23 24 23 23 23 23 24 23 24 25 25 26 26 27 27 27 29 32
27 26 26 24 22 24 24 25 24 23 23 22 22 23 23 22 23 23 24 25 26 26 29 34 30 34 32
25 23 23 23 24 24 25 24 21 23 23 22 22 21 21 22 22 23 25 25 26 30 25 24 24 27 34
22 22 23 24 25 24 23 24 23 23 22 21 21 20 21 20 22 23 24 24 23 23 24 24 25 26 26
24 24 24 23 23 23 23 22 21 20 21 19 19 20 20 22 21 23 23 21 22 22 23 23 24 25 24
22 22 22 20 21 21 20 19 17 17 18 19 18 20 20 20 20 21 21 21 21 22 22 23 23 24 26
20 19 20 21 19 20 20 19 19 16 19 19 21 21 18 18 20 20 21 21 21 22 22 23 24 24 27
19 20 20 20 20 20 20 21 20 19 20 21 21 20 21 20 19 19 20 20 21 22 22 23 24 24 24
19 19 18 18 19 20 20 22 22 21 22 22 22 21 20 19 18 19 20 21 22 22 22 24 23 24 24
18 17 18 19 20 20 20 21 21 22 21 21 22 22 21 19 19 19 20 20 22 21 21 22 23 24 24
18 19 19 19 19 20 20 20 20 18 19 20 21 21 20 20 20 20 20 20 21 21 21 22 21 22 23
19 19 19 19 19 19 19 19 18 17 17 19 20 20 21 21 20 20 20 21 21 21 21 19 20 21 22
19 19 18 18 18 19 18 18 17 17 17 18 19 19 20 19 19 19 21 23 21 20 20 19 19 19 21
20 19 19 18 18 18 18 18 17 17 18 19 22 21 17 15 17 20 22 22 21 20 19 20 21 21 21
Wind_Speed
1 6 6 11 11 14 12 9 13 21 21 24 23 21 24 24 26 24 24 24 23 23 24 26 25 26 26
4 6 8 9 11 15 7 11 13 15 24 23 22 26 28 25 26 25 25 24 23 24 23 24 25 22 23
7 5 5 7 12 8 10 13 11 18 19 17 21 25 25 25 25 25 24 22 24 25 28 28 27 26 24
7 9 7 8 8 11 16 11 16 14 13 14 21 22 23 24 25 26 25 26 28 28 27 27 28 27 26
7 7 8 9 12 9 12 13 15 9 11 16 15 16 16 20 22 23 29 29 28 27 25 25 23 29 29
4 9 8 9 7 12 12 15 13 7 15 19 13 15 16 16 25 31 29 27 24 23 29 31 28 27 26
8 8 9 13 10 12 12 10 13 16 16 18 14 16 15 19 27 29 25 23 27 31 28 29 28 27 27
10 11 11 11 12 12 10 10 13 15 13 15 12 16 18 16 27 24 21 27 29 29 29 29 27 27 27
12 11 14 18 16 12 13 15 18 17 17 6 14 22 16 19 15 16 29 25 28 28 29 28 27 26 20
8 12 13 11 14 11 11 13 15 12 3 13 18 15 16 9 14 19 15 23 27 28 28 27 25 16 15
11 11 11 10 10 10 11 10 14 16 20 17 16 19 14 21 15 20 18 19 20 20 23 25 23 23 18
9 9 11 12 13 13 14 13 14 18 21 18 17 20 22 24 24 18 22 20 16 19 17 19 24 24 24
8 10 11 13 13 12 15 15 17 20 18 19 18 20 19 23 24 25 26 23 20 13 20 19 19 17 19
10 10 10 12 14 13 15 16 17 23 20 16 17 17 20 21 21 26 23 19 22 20 19 19 18 17 17
10 12 13 14 15 14 13 15 16 20 22 22 20 20 20 22 22 25 22 21 19 21 20 21 20 17 16
11 11 14 15 17 15 13 14 18 21 21 22 22 24 23 20 17 21 19 16 20 20 19 20 22 19 16
11 14 14 15 17 17 18 18 20 21 22 21 20 19 23 25 26 17 20 19 19 21 19 18 21 23 19
Wind_Direction
274 331 342 343 351 342 340 360 349 336 339 337 337 338 333 333 327 325 325 322 323 318 312 308 302 301 298
329 352 336 345 346 340 340 342 336 330 335 338 339 333 333 333 331 330 328 326 319 315 314 309 303 298 300
334 308 323 343 340 332 333 327 330 331 331 337 329 329 331 330 329 328 327 320 317 324 316 313 310 305 298
323 319 327 331 331 330 331 330 323 325 317 328 323 324 325 325 325 323 319 319 322 314 312 307 302 297 295
318 310 319 330 333 323 318 315 315 298 312 324 321 317 315 318 313 314 320 319 315 317 316 320 316 320 297
333 323 316 316 306 316 314 319 323 314 326 316 318 311 312 309 314 318 319 318 315 322 322 317 308 309 319
332 345 318 317 311 324 321 314 313 313 317 312 313 305 306 310 312 314 317 314 324 319 315 314 306 306 307
354 329 319 335 345 348 346 324 318 313 317 303 308 301 311 299 305 307 307 316 316 317 313 310 311 308 305
356 0 353 344 341 358 343 335 327 321 307 287 321 314 311 299 292 301 308 305 311 313 315 312 310 308 306
3 353 347 344 349 345 325 323 322 322 321 325 315 323 316 284 314 300 290 301 308 311 313 314 314 313 305
350 339 335 334 330 323 314 304 305 300 297 314 310 308 297 306 304 301 300 305 305 304 310 310 310 312 314
347 334 329 325 323 317 311 305 294 286 294 296 288 295 298 302 304 307 310 305 302 304 301 301 304 303 303
332 325 316 310 312 319 318 313 302 297 298 291 281 287 286 292 299 304 307 309 300 297 304 300 300 299 297
322 313 314 326 327 323 314 315 311 306 304 290 289 287 290 290 295 296 298 296 301 301 299 301 299 293 287
320 326 329 326 319 314 301 302 298 303 307 309 307 297 287 283 289 289 293 294 296 299 304 303 299 294 290
329 327 326 317 310 307 301 297 302 302 302 304 306 304 307 301 275 286 293 291 300 299 298 296 297 297 288
317 310 302 298 306 307 309 304 303 300 298 296 297 301 302 303 306 301 302 304 300 297 294 291 292 295 296